Tracking 19146 objects as of 23-Apr-2018
HD Live streaming from Space Station
objects crossing your sky now

KANOPUS-V-IK

Track KANOPUS-V-IK now!
10-day predictions


NORAD ID: 42825
Int'l Code: 2017-042A
Perigee: 515.2 km
Apogee: 517.8 km
Inclination: 97.4 °
Period: 94.8 minutes
Semi major axis: 6887 km
RCS: Unknown
Launch date: July 14, 2017
Source: Commonwealth of Independent States (former USSR) (CIS)
Launch site: TYURATAM MISSILE AND SPACE COMPLEX (TTMTR)
aabbcc
Your satellite tracking list
Your tracking list is empty




NASA's NSSDC Master Catalog

Two Line Element Set (TLE):
1 42825U 17042A   18113.17855552  .00000266  00000-0  15958-4 0  9993
2 42825  97.4271  23.1060 0001889  91.8580 268.2870 15.18831260 42950
Source of the keplerian elements: AFSPC